Location: Newark
(44.3248°N, 23.7839°E)
Time: 22:18:19
(UTC+00:00)

FO-29 - Visible Passes

Search period start: 24 April 2024 00:00
Search period end: 04 May 2024 00:00
Orbit: 800 x 1320 km, 98.6° (Epoch: 24 April)

Date Brightness Start Highest point End Pass type
(mag) Time Alt. Az. Time Alt. Az. Time Alt. Az.
24 Apr 10.0 00:26:28 10° NNE 00:34:11 89° ESE 00:37:11 44° SSW visible
24 Apr 11.4 02:12:41 10° N 02:18:18 23° WNW 02:23:40 11° WSW visible
24 Apr 10.9 23:31:41 10° NNE 23:38:57 42° E 23:41:27 34° SE visible
25 Apr 10.5 01:16:41 10° N 01:23:55 48° WNW 01:27:57 27° WSW visible
25 Apr 11.8 22:38:08 10° NE 22:43:11 18° E 22:45:44 16° ESE visible
26 Apr 10.1 00:21:19 10° NNE 00:29:06 84° ESE 00:32:13 42° S visible
26 Apr 11.3 02:07:25 10° N 02:13:16 25° WNW 02:18:42 12° WSW visible
26 Apr 11.0 23:26:36 10° NNE 23:33:49 40° E 23:36:29 31° SE visible
27 Apr 10.4 01:11:30 10° N 01:18:53 51° WNW 01:22:58 27° SW visible
27 Apr 11.9 22:33:13 10° NE 22:38:01 17° E 22:40:45 14° ESE visible
28 Apr 10.1 00:16:11 10° NNE 00:24:01 80° ESE 00:27:14 41° S visible
28 Apr 11.3 02:02:10 10° N 02:08:14 26° WNW 02:13:43 12° WSW visible
28 Apr 11.0 23:21:32 10° NNE 23:28:41 37° E 23:31:29 29° SE visible
29 Apr 10.4 01:06:19 10° N 01:13:49 53° WNW 01:17:58 28° SW visible
29 Apr 12.0 22:28:22 10° NE 22:32:49 16° E 22:35:45 13° ESE visible
30 Apr 10.1 00:11:04 10° NNE 00:18:56 76° ESE 00:22:14 39° S visible
30 Apr 11.2 01:56:57 10° N 02:03:12 28° WNW 02:08:43 13° WSW visible
30 Apr 11.1 23:16:29 10° NNE 23:23:33 35° E 23:26:29 27° SE visible
01 May 10.3 01:01:09 10° N 01:08:46 56° WNW 01:12:57 28° SW visible
01 May 12.0 22:23:34 10° NE 22:27:36 15° E 22:30:44 12° ESE visible
02 May 10.2 00:05:57 10° NNE 00:13:51 72° ESE 00:17:12 38° S visible
02 May 11.2 01:51:44 10° N 01:58:09 29° WNW 02:03:41 13° WSW visible
02 May 11.2 23:11:27 10° NNE 23:18:24 33° E 23:21:27 25° SE visible
03 May 10.3 00:56:01 10° N 01:03:42 60° WNW 01:07:55 28° SW visible
03 May 11.8 02:43:11 10° NNW 02:47:09 15° NW 02:51:07 10° W visible
03 May 12.1 22:18:51 10° NE 22:22:23 13° E 22:25:41 10° ESE visible
